Cumberland, WI

12:22 AM CST on December 11, 2019 (GMT -0600)
Cumberland Municipal

Weather History for KUBE - October, 2019

Change the Weather History Date:

Wednesday, October 23, 2019

  Actual Average (WUND) Record (WUND)
Temperature  
Mean Temperature 37 °F -  
Max Temperature 41 °F - - (-1)
Min Temperature 33 °F - - (-1)
Degree Days  
Heating Degree Days 28    
Moisture  
Dew Point 32 °F    
Average Humidity 83    
Maximum Humidity 87    
Minimum Humidity 70    
Precipitation  
Precipitation 0.00 in - - ()
Sea Level Pressure  
Sea Level Pressure 29.85 in    
Wind  
Wind Speed 11 mph ()    
Max Wind Speed 21 mph    
Max Gust Speed 29 mph    
Visibility 9.8 miles    
Events Rain    
Averages and records for this station are not official NWS values.
T = Trace of Precipitation, MM = Missing Value Source: Averaged Metar Reports

Daily Weather History Graph

Daily Weather History Graph

Search for Another Location

Airport or City:

Astronomy

Oct. 23, 2019 Rise Set
Actual Time 7:34 AM CDT 6:09 PM CDT
Civil Twilight 7:04 AM CDT 6:39 PM CDT
Nautical Twilight 6:29 AM CDT 7:13 PM CDT
Astronomical Twilight 5:55 AM CDT 7:48 PM CDT
Moon 1:32 AM CDT (10/23) 4:19 PM CDT (10/23)
Length of Visible Light 11h 34m
Length of Day
10h 34m
Waning Crescent, 26% of the Moon is Illuminated
Oct 23
Waning Crescent
Oct 27
New
Nov 4
First Quarter
Nov 12
Full
Nov 19
Last Quarter

Hourly Weather History & Observations

Time (CDT) Temp. Windchill Dew Point Humidity Pressure Visibility Wind Dir Wind Speed Gust Speed Precip Events Conditions
12:35 AM 37.4 °F 26.9 °F 32.0 °F 81% 29.63 in 10.0 mi West 20.7 mph 28.8 mph N/A   Overcast
1:15 AM 35.6 °F 26.2 °F 32.0 °F 87% 29.64 in 10.0 mi West 15.0 mph 23.0 mph N/A   Overcast
1:35 AM 35.6 °F 25.9 °F 32.0 °F 87% 29.64 in 10.0 mi West 16.1 mph 23.0 mph N/A   Overcast
1:55 AM 35.6 °F 25.2 °F 32.0 °F 87% 29.64 in 10.0 mi West 18.4 mph 21.9 mph N/A   Drizzle
2:15 AM 35.6 °F 26.6 °F 32.0 °F 87% 29.65 in 10.0 mi West 13.8 mph - N/A   Overcast
2:35 AM 35.6 °F 27.5 °F 32.0 °F 87% 29.65 in 10.0 mi West 11.5 mph 18.4 mph N/A   Overcast
2:55 AM 35.6 °F 26.2 °F 32.0 °F 87% 29.66 in 10.0 mi West 15.0 mph - N/A   Overcast
3:15 AM 35.6 °F 27.1 °F 32.0 °F 87% 29.66 in 10.0 mi West 12.7 mph 18.4 mph N/A   Overcast
3:35 AM 35.6 °F 27.1 °F 32.0 °F 87% 29.66 in 10.0 mi West 12.7 mph - N/A   Overcast
3:55 AM 35.6 °F 27.1 °F 32.0 °F 87% 29.67 in 10.0 mi West 12.7 mph 19.6 mph N/A   Light Drizzle
4:15 AM 35.6 °F 27.5 °F 32.0 °F 87% 29.68 in 10.0 mi West 11.5 mph - N/A   Overcast
4:35 AM 35.6 °F 28.6 °F 32.0 °F 87% 29.69 in 7.0 mi West 9.2 mph - N/A   Light Drizzle
4:55 AM 35.6 °F 28.0 °F 32.0 °F 87% 29.70 in 10.0 mi West 10.4 mph - N/A Rain Light Rain
5:15 AM 35.6 °F 28.0 °F 32.0 °F 87% 29.71 in 10.0 mi West 10.4 mph - N/A   Overcast
5:35 AM 35.6 °F 26.6 °F 32.0 °F 87% 29.72 in 10.0 mi West 13.8 mph 19.6 mph N/A   Overcast
5:55 AM 35.6 °F 27.5 °F 32.0 °F 87% 29.72 in 10.0 mi West 11.5 mph - N/A   Overcast
6:15 AM 35.6 °F 28.6 °F 32.0 °F 87% 29.72 in 10.0 mi West 9.2 mph - N/A   Overcast
6:35 AM 35.6 °F 29.2 °F 32.0 °F 87% 29.73 in 10.0 mi West 8.1 mph - N/A   Overcast
6:55 AM 35.6 °F 28.0 °F 32.0 °F 87% 29.73 in 10.0 mi West 10.4 mph - N/A   Overcast
7:15 AM 35.6 °F 28.6 °F 32.0 °F 87% 29.73 in 10.0 mi West 9.2 mph - N/A   Overcast
7:35 AM 35.6 °F 28.6 °F 32.0 °F 87% 29.74 in 10.0 mi West 9.2 mph 17.3 mph N/A   Overcast
7:55 AM 35.6 °F 28.6 °F 32.0 °F 87% 29.75 in 10.0 mi West 9.2 mph - N/A   Overcast
8:15 AM 35.6 °F 27.5 °F 32.0 °F 87% 29.77 in 10.0 mi West 11.5 mph - N/A   Overcast
8:35 AM 35.6 °F 28.6 °F 32.0 °F 87% 29.78 in 10.0 mi West 9.2 mph - N/A   Overcast
8:55 AM 35.6 °F 27.1 °F 32.0 °F 87% 29.79 in 10.0 mi West 12.7 mph - N/A   Overcast
9:15 AM 35.6 °F 28.0 °F 32.0 °F 87% 29.80 in 10.0 mi West 10.4 mph - N/A   Overcast
9:35 AM 35.6 °F 28.0 °F 32.0 °F 87% 29.81 in 10.0 mi West 10.4 mph - N/A   Overcast
9:55 AM 35.6 °F 28.6 °F 32.0 °F 87% 29.81 in 7.0 mi West 9.2 mph - N/A   Overcast
10:15 AM 35.6 °F 29.2 °F 32.0 °F 87% 29.81 in 10.0 mi WNW 8.1 mph - N/A   Overcast
10:35 AM 37.4 °F 30.3 °F 32.0 °F 81% 29.82 in 10.0 mi WSW 10.4 mph - N/A   Overcast
10:55 AM 37.4 °F 30.8 °F 32.0 °F 81% 29.82 in 10.0 mi West 9.2 mph - N/A   Overcast
11:15 AM 37.4 °F 30.8 °F 32.0 °F 81% 29.83 in 10.0 mi West 9.2 mph - N/A   Overcast
11:35 AM 35.6 °F 29.2 °F 32.0 °F 87% 29.84 in 7.0 mi WNW 8.1 mph - N/A   Light Drizzle
11:55 AM 37.4 °F 30.3 °F 32.0 °F 81% 29.85 in 7.0 mi WNW 10.4 mph - N/A   Overcast
12:15 PM 37.4 °F 30.8 °F 32.0 °F 81% 29.86 in 10.0 mi West 9.2 mph - N/A   Overcast
12:35 PM 37.4 °F 31.4 °F 32.0 °F 81% 29.86 in 10.0 mi West 8.1 mph - N/A   Overcast
12:55 PM 37.4 °F 31.4 °F 32.0 °F 81% 29.86 in 10.0 mi WNW 8.1 mph - N/A   Overcast
1:15 PM 39.2 °F 33.0 °F 32.0 °F 75% 29.86 in 10.0 mi West 9.2 mph - N/A   Overcast
1:35 PM 37.4 °F 30.3 °F 32.0 °F 81% 29.86 in 10.0 mi West 10.4 mph - N/A   Overcast
1:55 PM 39.2 °F 35.0 °F 32.0 °F 75% 29.86 in 10.0 mi West 5.8 mph - N/A   Overcast
2:15 PM 39.2 °F 32.0 °F 32.0 °F 75% 29.86 in 10.0 mi West 11.5 mph - N/A   Overcast
2:35 PM 39.2 °F 32.5 °F 32.0 °F 75% 29.87 in 10.0 mi WNW 10.4 mph - N/A   Overcast
2:55 PM 39.2 °F 33.6 °F 32.0 °F 75% 29.88 in 10.0 mi WNW 8.1 mph - N/A   Overcast
3:15 PM 39.2 °F 32.0 °F 32.0 °F 75% 29.89 in 10.0 mi WNW 11.5 mph - N/A   Overcast
3:35 PM 39.2 °F 33.6 °F 32.0 °F 75% 29.89 in 10.0 mi WNW 8.1 mph - N/A   Overcast
3:55 PM 41.0 °F 34.7 °F 32.0 °F 70% 29.89 in 10.0 mi WNW 10.4 mph - N/A   Overcast
4:15 PM 41.0 °F 34.7 °F 32.0 °F 70% 29.91 in 10.0 mi WNW 10.4 mph - N/A   Overcast
4:35 PM 41.0 °F 35.8 °F 32.0 °F 70% 29.91 in 10.0 mi WNW 8.1 mph - N/A   Overcast
4:55 PM 41.0 °F 35.2 °F 32.0 °F 70% 29.92 in 10.0 mi NW 9.2 mph - N/A   Overcast
5:15 PM 39.2 °F 32.0 °F 30.2 °F 70% 29.93 in 10.0 mi WNW 11.5 mph - N/A   Overcast
5:35 PM 39.2 °F 34.2 °F 32.0 °F 75% 29.94 in 10.0 mi NW 6.9 mph - N/A   Overcast
5:55 PM 37.4 °F 32.1 °F 32.0 °F 81% 29.95 in 10.0 mi WNW 6.9 mph - N/A   Mostly Cloudy
6:15 PM 37.4 °F 30.8 °F 30.2 °F 75% 29.96 in 10.0 mi West 9.2 mph - N/A   Scattered Clouds
6:35 PM 37.4 °F 32.1 °F 32.0 °F 81% 29.97 in 10.0 mi West 6.9 mph - N/A   Mostly Cloudy
6:55 PM 35.6 °F 30.7 °F 30.2 °F 81% 29.98 in 10.0 mi West 5.8 mph - N/A   Mostly Cloudy
7:15 PM 35.6 °F 29.9 °F 30.2 °F 81% 29.99 in 10.0 mi West 6.9 mph - N/A   Scattered Clouds
7:35 PM 35.6 °F 28.6 °F 30.2 °F 81% 30.00 in 10.0 mi West 9.2 mph - N/A   Clear
7:55 PM 35.6 °F 29.2 °F 30.2 °F 81% 30.01 in 10.0 mi West 8.1 mph - N/A   Clear
8:15 PM 33.8 °F 26.4 °F 30.2 °F 87% 30.01 in 10.0 mi West 9.2 mph - N/A   Clear
8:35 PM 33.8 °F 27.7 °F 30.2 °F 87% 30.02 in 10.0 mi WNW 6.9 mph - N/A   Clear
8:55 PM 33.8 °F 27.0 °F 30.2 °F 87% 30.03 in 10.0 mi West 8.1 mph - N/A   Clear
9:15 PM 33.8 °F 27.7 °F 30.2 °F 87% 30.03 in 10.0 mi West 6.9 mph - N/A   Scattered Clouds
9:35 PM 33.8 °F 27.0 °F 30.2 °F 87% 30.04 in 10.0 mi WNW 8.1 mph - N/A   Scattered Clouds
9:55 PM 33.8 °F 27.7 °F 30.2 °F 87% 30.05 in 10.0 mi WNW 6.9 mph - N/A   Scattered Clouds
10:15 PM 33.8 °F 27.0 °F 30.2 °F 87% 30.05 in 10.0 mi WNW 8.1 mph - N/A   Clear
10:35 PM 33.8 °F 27.7 °F 30.2 °F 87% 30.06 in 10.0 mi WNW 6.9 mph - N/A   Clear
10:55 PM 33.8 °F 27.7 °F 30.2 °F 87% 30.07 in 10.0 mi WNW 6.9 mph - N/A   Clear
11:15 PM 33.8 °F 27.0 °F 30.2 °F 87% 30.07 in 10.0 mi WNW 8.1 mph - N/A   Clear
11:35 PM 33.8 °F 27.7 °F 30.2 °F 87% 30.08 in 10.0 mi WNW 6.9 mph - N/A   Scattered Clouds
11:55 PM 33.8 °F 27.0 °F 30.2 °F 87% 30.09 in 10.0 mi WNW 8.1 mph - N/A   Mostly Cloudy